Location: Blue Mountain Vista Observatory
(40.6992°N, 75.9422°W)
Time: 23:33:39
(UTC-05:00)

Daily predictions for brighter satellites

Satellite Brightness Start Highest point End
(mag) Time Altitude Azimuth Time Altitude Azimuth Time Altitude Azimuth
Cosmos 1536 4.5 18:13:01 10° ESE 18:15:08 14° E 18:17:15 10° NE
Meteor 1-25 Rocket 4.3 18:13:03 10° S 18:18:39 89° E 18:24:23 10° N
Okean 1 3.4 18:15:49 10° N 18:19:49 56° E 18:23:49 10° SSE
Cosmos 1812 2.8 18:16:45 10° N 18:20:37 87° W 18:24:28 10° S
Cosmos 1633 3.4 18:17:35 10° SSE 18:20:49 29° E 18:24:03 10° NNE
Cosmos 1536 Rocket 3.8 18:18:10 10° N 18:22:32 51° E 18:26:53 10° SSE
Cosmos 1818 3.6 18:19:35 10° SSW 18:25:01 87° ESE 18:30:31 10° NNE
Cosmos 407 Rocket 3.6 18:21:13 10° SSW 18:26:27 84° WNW 18:31:48 10° NNE
Cosmos 2360 Rocket 2.5 18:22:25 10° NNW 18:27:53 47° ENE 18:33:19 10° SE
ASTRO F (AKARI) 4.4 18:24:49 10° NNE 18:28:23 79° ESE 18:31:46 10° S
Cosmos 2219 Rocket 3.9 18:26:03 10° NNE 18:29:02 14° NE 18:31:49 10° ENE
Cosmos 2219 4.3 18:24:47 10° SSE 18:29:13 23° E 18:33:38 10° NE
Cosmos 676 Rocket 3.9 18:25:51 10° S 18:31:00 74° ESE 18:36:14 10° NNE
DNEPR-1 R/B 4.1 18:27:45 10° NW 18:31:56 60° WSW 18:36:09 10° SSE
Nadezhda 1 Rocket 4.5 18:32:31 10° NNW 18:38:32 65° W 18:44:31 10° S
Meteor 1-11 Rocket 4.0 18:33:07 10° SSE 18:38:36 47° E 18:44:15 10° NNE
Cosmos 1461 4.0 18:40:46 10° NW 18:44:37 45° WSW 18:48:33 10° S
DELTA 2 R/B (1) 3.9 18:40:10 10° W 18:45:43 62° SSW 18:50:43 13° ESE
Cosmos 1140 Rocket 3.5 18:41:04 10° S 18:46:06 61° ESE 18:51:11 10° NNE
Cosmos 1602 3.6 18:45:19 10° S 18:49:09 66° E 18:53:02 10° NNE
Resurs 01 Rocket 2.1 18:45:13 10° SE 18:49:17 38° ENE 18:53:23 10° N
Cosmos 1300 Rocket 3.5 18:46:18 10° S 18:50:40 65° E 18:55:04 10° NNE
Cosmos 614 Rocket 4.0 18:49:03 10° S 18:53:58 53° ESE 18:58:55 10° NNE
COSMO-SKYMED 1 4.4 18:51:36 10° N 18:55:30 33° WNW 18:59:23 10° SW
Cosmos 1833 4.2 18:50:21 10° SSW 18:56:04 88° WNW 19:01:45 10° NNE
Abrixas rocket 3.5 18:53:19 10° SSW 18:56:07 24° SE 18:56:51 22° ESE
ALOS 2.2 18:52:37 10° SSE 18:57:13 63° ENE 19:01:52 10° N
Cosmos 2181 Rocket 4.0 18:52:18 10° N 18:58:35 79° E 19:04:56 10° S
Spot 2 Rocket 3.6 18:56:44 10° SSE 19:01:38 53° ENE 19:06:34 10° N
USA 229 DEB 4.3 18:55:59 10° NNW 19:02:39 40° NE 19:07:02 21° ESE
USA 229 4.3 18:56:05 10° NNW 19:02:44 40° NE 19:07:06 21° ESE
Cosmos 2333 Rocket 3.5 18:58:34 10° N 19:02:54 21° NE 19:04:11 20° ENE
SL-16 R/B 4.0 18:59:23 10° NW 19:04:27 34° WSW 19:09:30 10° SSW
FREGAT/IRIS 3.5 19:01:56 10° S 19:04:57 53° W 19:08:00 10° NNW
Cosmos 2208 Rocket 4.3 18:59:45 10° N 19:05:03 48° ENE 19:09:51 12° SE
Helios 1A 3.8 19:04:17 26° E 19:05:23 29° ENE 19:09:00 10° N
NOSS 8 (E) 4.4 19:03:00 10° SSW 19:06:26 85° ESE 19:09:17 16° NE
Cosmos 1340 3.3 19:03:15 10° NNW 19:07:00 59° W 19:10:43 10° S
Resurs 1-3 3.7 19:02:54 10° SSE 19:07:08 50° ENE 19:11:23 10° N
Cosmos 1709 Rocket 4.4 19:06:55 10° SSW 19:13:05 64° W 19:19:13 10° N
Cosmos 2074 Rocket 4.0 19:07:05 10° SSE 19:13:08 55° E 19:19:15 10° NNE
Cosmos 1850 Rocket 3.9 19:07:58 10° S 19:13:13 68° ESE 19:18:32 10° NNE
Cosmos 2184 Rocket 4.0 19:09:57 10° SSE 19:16:06 56° E 19:22:12 10° NNE
Envisat 4.1 19:18:30 25° ENE 19:18:30 25° ENE 19:22:14 10° NNE
Helios 1B rocket 2.9 19:14:29 10° NNE 19:18:22 37° E 19:22:13 10° SSE
FengYun 1-2 T 4.2 19:13:49 10° SSE 19:19:18 85° WSW 19:24:50 10° NNW
NOSS 8 (H) 4.3 19:17:09 10° SSW 19:20:31 85° ESE 19:21:51 36° NE
Intercosmos 24 4.3 19:16:46 10° S 19:20:50 59° E 19:26:37 10° NNE
HJ-1C 3.9 19:18:45 10° S 19:22:05 59° W 19:25:25 10° NNW
Okean 2 4.0 19:18:34 10° N 19:22:00 36° ENE 19:22:00 36° ENE
SJ-6B 4.3 19:19:41 10° S 19:23:28 39° W 19:27:11 10° NNW
Tiangong 2 3.6 19:23:11 10° WSW 19:25:08 16° SW 19:26:32 12° S
Okean 1 Rocket 3.4 19:21:01 10° SSW 19:25:29 69° W 19:29:58 10° N
SAR-Lupe-1 4.4 19:26:18 44° NE 19:26:18 44° NE 19:29:16 10° N
Meteor 1-5 Rocket 4.3 19:20:24 10° S 19:26:16 63° E 19:32:07 10° NNE
FENGYUN 3A 3.9 19:21:46 10° S 19:27:09 71° WSW 19:32:35 10° NNW
Genesis I 3.1 19:23:14 10° NNW 19:27:11 76° NE 19:28:05 50° SE
SAR-Lupe-4 3.4 19:30:26 67° E 19:30:37 69° ENE 19:34:11 10° N
Gbstr 26 Del rocket 3.1 19:32:20 10° WSW 19:36:03 57° NNW 19:36:53 45° NNE
Nadezhda 3 Rocket 4.3 19:30:21 10° N 19:36:06 39° ENE 19:36:37 39° E
Cosmos 2322 4.4 19:31:46 10° NNW 19:37:21 55° WSW 19:42:52 10° S
GEOS 3 Rocket 4.0 19:39:42 12° NNE 19:44:35 65° NW 19:49:48 10° SW
CZ-2D R/B 3.3 19:43:32 43° S 19:44:41 73° W 19:48:30 10° NNW
Cosmos 2285 Rocket 3.9 19:38:23 10° NNW 19:44:50 70° ENE 19:47:50 33° SE
Cosmos 2154 Rocket 4.1 19:39:01 10° SSE 19:45:05 50° E 19:51:10 10° NNE
Cosmos 1025 Rocket 3.1 19:41:20 10° N 19:45:44 76° W 19:48:41 20° S
GPS 2-04 Rocket1 3.9 19:43:00 10° SW 19:46:29 34° S 19:46:29 34° S
Cosmos 405 Rocket 4.2 19:43:00 10° N 19:45:01 27° NNE 19:45:01 27° NNE
H-2A R/B 3.8 19:46:27 10° S 19:50:00 44° W 19:53:36 10° NNW
Meteor 2-13 Rocket 4.3 19:44:57 10° S 19:50:58 71° E 19:57:02 10° NNE
Cosmos 1536 4.2 19:47:28 10° SSW 19:51:12 38° WNW 19:54:57 10° N
COSMOS 2428 2.7 19:47:06 10° NNW 19:52:47 79° WSW 19:55:38 31° SSE
Cosmos 2333 4.1 19:48:25 10° NNW 19:54:11 87° WSW 19:56:21 40° SSE
Meteor 2-4 Rocket 4.4 19:49:35 10° NNW 19:54:56 51° W 20:00:08 10° SSW
Cosmos 2237 Rocket 3.0 19:51:35 10° N 19:55:53 36° NE 19:55:53 36° NE
NOSS 0 Rocket 3.8 20:02:22 10° NNW 20:08:24 66° ENE 20:08:24 66° ENE
Cosmos 2360 Rocket 4.3 20:07:05 10° NW 20:11:32 24° WSW 20:15:58 10° SSW
Cosmos 2219 4.0 20:07:25 10° SW 20:12:59 50° WNW 20:18:33 10° NNE
Cosmos 2219 Rocket 2.1 20:08:11 10° NNW 20:13:35 82° N 20:13:35 82° N
Resurs 01 Rocket 4.2 20:22:48 10° SW 20:25:54 19° W 20:29:01 10° NW
SL-16 R/B 4.0 20:25:19 10° N 20:27:19 20° N 20:27:19 20° N
BREEZE-M DEB (TANK) 4.3 20:30:19 10° WNW 20:34:28 73° SSW 20:35:01 69° S
Cosmos 2333 Rocket 3.0 20:41:56 10° NNW 20:46:14 48° NW 20:46:14 48° NW
USA 229 DEB 4.4 20:46:56 10° NW 20:53:44 48° WSW 20:54:33 46° SW
USA 229 4.4 20:47:01 10° NW 20:53:50 49° WSW 20:54:36 47° SW
NOSS 3-1 (A) 4.4 20:59:07 10° NNW 21:04:58 57° NNW 21:04:58 57° NNW
ATLAS 2AS CENTAUR R/B 4.3 21:05:20 10° NNW 21:10:18 28° N 21:10:18 28° N
